NOAA 16 DEB, 41063

Orbit data source: Space-Track

NOAA 16 DEB, 41063 is space debris in SSO originally from a launch on Thu, 21 Sep 2000 UTC launched from the Air Force Western Test Range (AFWTR). Debris objects in space refer to the collection of defunct objects orbiting the Earth. Examples of debris include non-operational satellites, rocket bodies, and fragments generated from explosions, collisions, or faulty payload assembly.

Loading next visibility...
Identifier
41063, 2000-055W
Orbit
SSO
Country
Flag of USUS
Related business
Manufacturer
Unknown
Mission
Spacecraft
Bus & Motor
Unknown
Mass
Unknown
Launch date (UTC)
2000-09-21 (26 years ago)
Launch vehicle
Unknown
Launch site
Air Force Western Test Range (AFWTR)
Object type
Payload
Rocket body
Debris
Shape & HBR
Unknown shape, 0.1 m
Radar Cross Section
Small (<0.1 m²)

Expand to show TLE details & history
Last TLE update: 13 hours ago

TLE from 13 hours ago
0 NOAA 16 DEB
1 41063U 00055W   26125.76813465  .00002952  00000-0  12772-2 0  9999
2 41063  98.7473 207.4786 0021856 188.2425 171.8398 14.24975447538831
Epoch: 2026-05-05T18:26Z
TLE epoch observation values (Epoch: 2026-05-05T18:26:06.833Z)
Latitude
-0.00005°
Longitude
67.31189°
Altitude
827.047 km
Speed
7.431 km/s
True Right ascension
13h 49m 54s
True Declination
0° 00' 00"
Sunlit
Object was in full shadow at epoch
Visualization orbit readout
Latitude
Unknown
Longitude
Unknown
Altitude
Unknown
Speed
Unknown
Apparent Right ascension
Unknown
Apparent Declination
Unknown
Sunlit
N/A
Visualization observer readout
Local Sidereal Time
15:08:25
Azimuth
Unknown
Elevation
Unknown
Doppler factor
Unknown
Orbital elements
Apogee altitude
821.43 km
Perigee altitude
790.028 km
Semi-major axis
7,183.866 km
Eccentricity
0.00219
Inclination
98.7473°
RAAN
207.4786°
Arg. of periapsis
188.2425°
True anomaly
171.87525°
Mean anomaly
171.8398°
Eccentric anomaly
171.85754°
Mean motion
3.56456 °/min
Orbital period
100.99 mins
BSTAR
0.0012772
Loading maneuver chart data...
Computing Atmospheric mass density...
Loading historical data...
Loading historical data...
Loading historical data...
Loading historical data...
Loading historical data...
Loading historical data...
Loading historical data...

Documentation

Showing up to 5 results
|